STARLINK-32714 (62499 NORAD) Tracking and Keplerian Element Data

This shows tracking and keplerian element data for the satellite.

Feedback or suggestion? Click here.




ElementValue
Catalog62499
NameSTARLINK-32714
Epoch Orbit5449
Epoch Day354.08938761
Epoch Year2025
RAAN18.8656
Inclination43.0001
Eccentricity0.0001311
Argument of Perigee250.4836
Mean Anonmoly109.5874
Mean Motion15.2758521
Decay Rate0.00029847
L11 62499U 25003N 25354.08938761 .00029847 00000+0 10896-2 0 9996
L22 62499 43.0001 18.8656 0001311 250.4836 109.5874 15.27585210 54490



Live tracking and technical data element details for STARLINK-32714 (NORAD 62499). STARLINK-32714 can be tracked NOW for your location showing map with azimuth and elevation plus other details from your city location.







IsCatalogInMostPopularTable: catalog: 62499, numindb: 60
Update: records affected: 1



GetName: 62499 STARLINK-32714

Hit Count: updated at: Tue, 10 Feb 2026 02:31:08 GMT